Location: Jackson
(42.2460°N, 84.4010°W)
Time: 18:11:15
(UTC-04:00)

Courier 1B Rocket - Pass Details

Date: 08 February 2026
Orbit: 920 x 1201 km, 28.2° (Epoch: 12 March)

Event Time Altitude Azimuth Distance (km) Brightness Sun altitude
Rises 05:17:48 0° 254° (WSW) 4,060 - -27.3°
Reaches altitude 10° 05:23:14 10° 223° (SW) 3,121 - -26.3°
Maximum altitude 05:25:25 11° 207° (SSW) 3,022 - -25.9°
Exits shadow 05:26:13 11° 200° (SSW) 3,036 7.3 -25.7°
Drops below altitude 10° 05:27:37 10° 190° (S) 3,123 7.5 -25.5°
Sets 05:33:05 0° 159° (SSE) 4,066 8.5 -24.4°
